EHI
0 0 1 2 4 4 5 6 7 10 11 10 7 5 5 6 6 5 4 4 3 3 1 0 0 0 0 0 0 0 0 0 0 0 0 0 0 0 0 0 0 0 0
0 0 1 2 4 6 8 8 8 10 11 9 6 4 4 4 4 4 4 4 3 3 2 1 1 0 0 0 0 0 0 0 0 0 0 0 0 0 0 0 0 0 0
0 0 1 4 7 10 12 10 9 10 10 8 5 3 3 3 3 3 3 3 2 2 2 2 1 1 0 0 0 0 0 0 0 0 0 0 0 0 0 0 0 0 0
0 0 2 6 11 14 13 11 10 9 8 6 4 2 2 2 2 2 1 1 1 0 1 1 1 1 0 0 0 0 0 0 0 0 0 0 0 0 0 0 0 0 0
0 1 4 8 14 17 15 12 10 8 6 5 2 1 1 1 1 1 0 0 0 0 0 0 0 0 0 0 0 0 0 0 0 0 0 0 0 0 0 0 0 0 0
0 1 4 9 13 15 15 13 11 8 6 4 2 1 1 0 0 0 0 0 0 0 0 0 0 0 0 0 0 0 0 0 0 0 0 0 0 0 0 0 0 0 0
1 2 5 8 10 9 11 12 11 9 7 4 3 3 2 1 0 0 0 0 0 0 0 0 0 0 0 0 0 0 0 0 0 0 0 0 0 0 0 0 0 0 0
1 2 4 5 5 5 6 9 10 8 6 4 4 4 3 1 0 0 0 0 0 0 0 0 0 0 0 0 0 0 0 0 0 0 0 0 0 0 0 0 0 0 0
0 1 1 2 2 2 3 5 6 5 4 3 3 3 2 0 0 0 0 0 0 0 0 0 0 0 0 0 0 0 0 0 0 0 0 0 0 0 0 0 0 0 0
0 0 0 0 0 0 0 1 2 2 2 2 1 1 0 0 0 0 0 0 0 0 0 0 0 0 0 0 0 0 0 0 0 0 0 0 0 0 0 0 0 0 0
0 0 0 0 0 0 0 0 0 1 1 1 0 0 0 0 0 0 0 0 0 0 0 0 0 0 0 0 0 0 0 0 0 0 0 0 0 0 0 0 0 0 0
0 0 0 0 0 0 0 0 0 0 0 0 0 0 0 0 0 0 0 0 0 0 0 0 0 0 0 0 0 0 0 0 0 0 0 0 0 0 0 0 0 0 0
0 0 0 0 0 0 0 0 0 0 0 0 0 0 0 0 0 0 0 0 0 0 0 0 0 0 0 0 0 0 0 0 0 0 0 0 0 0 0 0 0 0 0
0 0 0 0 0 0 0 0 0 0 0 0 0 0 0 0 0 0 0 0 0 0 0 0 0 0 0 0 0 0 0 0 0 0 0 0 0 0 0 0 0 0 0
0 0 0 0 0 0 0 0 0 0 0 0 0 0 0 0 0 0 0 0 0 0 0 0 0 0 0 0 0 0 0 0 0 0 0 0 0 0 0 0 0 0 0
0 0 0 0 0 0 0 0 0 0 0 0 0 0 0 0 0 0 0 0 0 0 0 0 0 0 0 0 0 0 0 0 0 0 0 0 0 0 0 0 0 0 0
0 0 0 0 0 0 0 0 0 0 0 0 0 0 0 0 0 0 0 0 0 0 0 0 0 0 0 0 0 0 0 0 0 0 0 0 0 0 0 0 0 0 0
0 0 0 0 0 0 0 0 0 0 0 0 0 0 0 0 0 0 0 0 0 0 0 0 0 0 0 0 0 0 0 0 0 0 0 0 0 0 0 0 0 0 0
0 0 0 0 0 0 0 0 0 0 0 0 0 0 0 0 0 0 0 0 0 0 0 0 0 0 0 0 0 0 0 0 0 0 0 0 0 0 0 0 0 0 0
0 0 0 0 0 0 0 0 0 0 0 0 0 0 0 0 0 0 0 0 0 0 0 0 0 0 0 0 0 0 0 0 0 0 0 0 0 0 0 0 0 0 0
0 0 0 0 0 0 0 0 0 0 0 0 0 0 0 0 0 0 0 0 0 0 0 0 0 0 0 0 0 0 0 0 0 0 0 0 0 0 0 0 0 0 0
0 0 0 0 0 0 0 0 0 0 0 0 0 0 0 0 0 0 0 0 0 0 0 0 0 0 0 0 0 0 0 0 0 0 0 0 0 0 0 0 0 0 0
0 0 0 0 0 0 0 0 0 0 0 0 0 0 0 0 0 0 0 0 0 0 0 0 0 0 0 0 0 0 0 0 0 0 0 0 0 0 0 0 0 0 0
0 0 0 0 0 0 0 0 0 0 0 0 0 0 0 0 0 0 0 0 0 0 0 0 0 0 0 0 0 0 0 0 0 0 0 0 0 0 0 0 0 0 0
0 0 0 0 0 0 0 0 0 0 0 0 0 0 0 0 0 0 0 0 0 0 0 0 0 0 0 0 0 0 0 0 0 0 0 0 0 0 0 0 0 0 0
0 0 0 0 0 0 0 0 0 0 0 0 0 0 0 0 0 0 0 0 0 0 0 0 0 0 0 0 0 0 0 0 0 0 0 0 0 0 0 0 0 0 0
Wind_Speed
1 2 6 8 9 10 10 10 11 11 11 11 11 11 11 12 12 12 12 11 11 10 10 11 11 11 12 12 12 12 12 12 11 11 11 11 11 11 11 11 10 6 11
4 3 6 8 9 10 10 10 11 11 11 11 11 11 11 11 11 11 11 11 10 10 10 10 10 10 11 11 12 11 11 11 11 11 10 9 10 10 10 10 9 6 9
5 4 5 8 9 10 10 10 11 11 11 11 11 11 11 11 11 10 11 11 10 10 10 10 10 10 10 10 10 10 10 10 10 10 9 5 5 9 9 9 9 9 9
5 4 5 8 9 10 10 10 11 11 11 11 11 11 11 11 11 10 10 11 10 10 10 10 10 10 9 9 9 9 9 9 9 8 4 3 3 6 8 8 8 8 8
5 4 5 9 10 10 11 10 10 10 11 11 11 11 11 11 11 10 10 9 9 9 9 9 9 9 9 9 9 8 8 8 8 6 3 3 2 5 7 7 7 7 7
5 4 6 9 10 10 11 10 10 10 10 10 10 11 11 11 10 10 9 9 9 9 9 8 8 8 8 8 8 8 7 8 6 4 3 2 1 4 5 6 6 6 6
5 4 5 9 10 10 11 10 10 10 10 10 10 10 10 10 10 9 9 8 8 8 8 8 8 8 7 7 7 7 7 7 4 3 2 1 2 4 4 5 5 5 6
6 5 5 8 9 10 10 10 10 10 10 9 9 9 9 9 9 9 8 8 8 7 7 7 7 7 7 7 7 7 7 6 4 3 2 1 3 4 4 5 5 5 5
6 6 5 5 6 9 9 9 9 10 9 9 9 9 9 9 9 9 8 7 7 7 6 6 6 6 6 6 6 7 7 7 3 2 1 1 2 3 4 4 4 4 4
6 6 5 5 5 5 5 8 9 9 9 9 9 8 8 8 8 8 7 7 6 6 5 6 6 6 6 5 6 6 7 6 3 2 1 1 2 2 2 2 3 3 2
5 4 4 5 5 5 4 6 7 7 8 8 7 8 7 4 4 4 6 7 7 6 4 4 5 6 6 5 5 6 5 2 2 2 1 2 1 1 1 1 2 1 1
4 3 3 4 4 4 4 4 3 3 4 4 4 4 3 3 3 4 6 6 6 6 5 5 5 5 4 2 3 4 2 2 2 1 2 2 1 1 0 0 0 0 0
3 3 3 3 3 3 3 3 2 2 2 3 4 3 3 3 3 3 2 3 4 5 4 4 4 2 2 2 2 2 2 1 1 1 2 3 2 2 2 1 1 1 1
4 3 2 3 3 3 3 2 2 2 2 2 2 3 2 2 2 2 2 2 2 2 2 2 2 2 2 2 1 2 2 1 1 1 2 3 3 2 3 3 3 3 3
4 3 3 3 3 3 3 2 2 2 2 2 2 2 3 2 2 2 2 2 2 2 2 2 2 2 2 2 1 1 1 2 1 1 2 3 3 3 4 4 4 4 4
4 3 2 3 3 3 2 2 2 2 2 2 2 2 3 2 2 2 2 2 2 2 1 1 2 2 1 1 2 2 2 2 1 2 2 2 4 3 4 4 4 5 5
4 3 3 3 3 3 3 2 2 2 2 2 2 2 2 2 2 2 1 2 2 2 2 2 2 2 2 2 2 2 2 2 2 2 2 1 2 3 4 5 5 6 6
4 3 3 3 3 3 3 2 2 2 2 2 1 2 2 2 2 2 1 1 2 2 2 2 2 2 2 2 2 2 2 2 3 2 2 1 1 2 3 4 6 6 7
4 4 3 3 3 2 2 2 2 2 2 1 1 1 2 2 2 2 1 1 1 2 2 2 2 2 2 3 3 2 2 2 2 2 2 2 2 2 2 3 5 6 7
3 3 3 3 3 2 2 2 2 2 1 1 1 1 1 1 1 1 1 1 1 2 2 2 2 2 1 2 3 3 3 3 2 2 2 2 1 2 2 2 2 4 7
3 3 3 3 2 2 2 1 1 0 0 1 0 1 1 1 1 1 1 1 1 1 1 1 1 2 2 2 2 3 3 3 2 2 1 1 1 2 1 2 2 2 3
3 3 3 3 2 2 1 1 1 1 0 0 0 0 0 0 0 1 0 0 0 0 1 1 1 1 1 2 1 2 3 4 3 2 2 1 2 2 2 3 2 3 3
4 4 3 2 2 2 2 2 2 2 1 1 1 1 1 1 1 0 1 1 1 1 1 1 0 0 1 2 0 0 0 2 3 3 2 2 2 2 3 3 3 3 3
4 3 3 2 2 2 3 3 3 1 1 2 1 1 2 1 1 1 1 1 1 1 1 1 1 1 1 1 1 1 2 2 2 3 3 2 3 3 3 4 4 4 4
4 4 3 3 2 2 2 3 3 1 1 1 1 1 1 2 2 2 1 1 1 2 2 2 1 1 1 2 1 1 2 2 2 3 5 4 3 3 3 4 3 3 4
3 3 3 3 2 1 1 2 2 2 1 1 1 1 1 1 2 2 2 2 2 2 2 2 2 2 2 2 2 2 2 2 2 3 4 5 5 4 4 3 3 3 3
Wind_Direction
168 178 134 117 112 107 103 101 99 96 95 95 92 90 90 88 87 87 85 84 82 80 82 83 81 80 80 79 80 79 78 77 76 75 75 76 80 82 80 76 70 62 74
159 159 132 120 114 109 106 104 101 99 96 95 94 92 91 89 88 88 85 82 81 80 78 78 80 81 82 81 80 80 78 76 74 71 68 68 75 80 79 77 76 69 74
128 134 126 121 116 111 108 105 104 101 97 94 92 90 90 88 85 86 85 81 78 77 76 76 76 77 80 81 80 80 78 75 74 71 64 54 67 80 79 77 82 75 75
118 116 116 119 118 113 109 104 103 100 97 93 90 87 87 85 82 81 83 81 79 77 75 74 72 72 75 76 77 79 78 72 71 66 59 50 57 83 84 84 84 78 76
101 101 110 111 112 110 107 104 101 98 96 93 89 86 84 83 80 79 80 81 81 81 78 76 75 72 70 69 72 73 73 69 62 57 53 48 48 85 89 90 90 85 82
94 95 106 108 109 107 105 104 102 99 97 93 89 88 86 84 80 78 78 78 77 79 79 77 76 74 69 66 65 65 65 65 57 45 48 46 53 91 94 94 96 92 90
95 93 106 109 110 108 103 101 100 97 95 92 90 89 87 85 83 79 77 77 77 76 75 74 72 71 70 67 64 60 58 61 62 48 41 41 82 99 101 100 100 102 98
97 86 94 106 106 104 101 99 97 94 92 90 88 87 85 84 82 80 76 76 76 77 76 72 68 68 66 63 60 56 52 51 55 48 37 42 90 100 103 103 100 102 99
86 80 71 80 91 96 96 96 94 92 89 87 84 84 82 81 77 75 70 69 72 74 75 72 66 67 61 60 55 50 46 41 41 37 37 43 86 104 101 100 99 98 96
77 73 69 69 71 74 84 89 89 87 85 82 77 75 74 72 70 68 63 60 62 68 71 69 65 60 54 56 51 45 41 37 27 16 12 45 75 98 95 96 107 102 108
77 72 75 77 77 76 79 82 82 83 79 75 69 69 68 54 51 56 54 56 53 54 60 63 61 52 44 43 43 40 35 23 13 4 352 23 56 91 83 86 105 126 132
98 84 74 82 82 79 80 72 65 68 66 62 59 60 62 58 49 52 43 44 44 39 37 41 44 43 36 21 27 29 26 10 10 346 350 4 358 334 338 51 83 140 220
129 106 86 87 83 82 80 78 65 57 61 60 59 62 63 57 47 44 37 25 21 26 22 19 24 22 24 19 17 14 5 4 350 329 337 348 332 314 300 290 278 270 284
121 118 106 99 92 91 90 87 83 72 63 59 58 64 66 58 45 39 38 25 22 19 18 16 11 11 13 6 12 5 355 348 335 318 318 338 330 309 300 299 287 272 270
128 131 128 117 109 102 98 94 85 79 78 70 57 54 67 71 58 47 37 31 21 17 18 11 7 7 4 352 348 347 332 319 316 312 310 328 328 315 302 295 290 285 277
145 147 135 129 121 111 105 98 93 86 80 73 61 52 66 76 72 58 43 32 21 9 358 13 1 355 345 339 330 329 312 297 296 299 294 311 322 319 306 297 298 299 293
157 150 142 135 120 114 104 99 92 86 87 80 59 46 53 64 77 74 55 27 7 3 7 16 9 7 4 352 332 318 307 296 295 282 279 278 292 311 309 302 300 298 299
145 145 145 128 118 113 106 100 95 90 89 80 63 50 47 50 67 73 59 21 2 13 21 19 12 8 1 348 327 314 305 290 284 276 275 275 274 290 300 309 307 301 301
153 147 139 124 124 119 112 107 101 97 89 80 65 51 36 36 54 74 63 15 19 29 27 18 18 6 345 337 322 311 301 293 283 280 272 272 270 274 279 305 309 306 302
147 142 137 131 127 119 105 91 81 75 70 75 80 57 41 26 44 67 60 19 37 43 26 24 13 2 332 325 323 321 304 294 287 278 269 275 280 281 282 294 303 306 303
132 134 136 130 134 125 123 121 116 110 61 51 58 58 34 25 34 56 39 21 43 57 22 16 16 4 348 348 355 336 318 305 300 290 297 299 310 302 313 306 295 286 296
148 147 145 147 145 144 155 166 165 164 189 196 258 314 309 37 5 23 24 292 38 53 22 17 42 20 337 4 21 350 334 332 329 324 320 315 313 321 324 314 300 294 291
164 169 166 164 154 144 120 101 74 55 40 21 316 281 282 275 284 274 247 251 235 176 217 245 174 114 297 308 320 146 321 290 311 306 299 302 315 323 313 306 310 302 296
181 172 166 165 153 153 139 134 137 146 202 240 240 244 281 276 269 267 254 245 241 233 227 238 222 210 202 270 291 276 241 230 271 304 304 310 317 306 298 307 304 299 297
172 168 169 162 160 158 155 160 162 176 222 265 285 266 279 284 274 273 259 246 249 254 246 233 231 230 215 230 243 270 279 280 243 257 284 299 304 284 284 283 286 291 298
158 158 160 163 170 164 160 174 176 185 210 255 290 269 274 284 287 284 281 262 250 250 250 240 227 232 233 239 247 241 243 250 255 254 270 289 294 289 285 270 268 276 286